EKCH

Copenhagen Airport, Kastrup

Airport
ICAO code
EKCH
IATA Code
CPH
Summary
ICAO Region
EUR
ICAO Territory
Location

Kastrup, Hovedstaden

Serving
Copenhagen
Elevation
17 ft
Coordinates
55° 36' 54" N , 12° 38' 46" E
KCC
Airport LOS
Parallel Runway Operation
Metar
EKCH 181350Z AUTO 10007KT 080V140 9999 NCD 22/06 Q1014 NOSIG

International airport serving the Danish capital.

Climatology

Temperate Marine climate/Oceanic climate (Köppen climate classification Cfb). Moderately cool summer and comparatively warm winter with a temperature range of only 14°C. Prevailing south-westerly winds from the Atlantic Ocean.

Runways

Designator Length Width Surface Rops
12/30 3070 45 PEM Yes/Yes
04R/22L 3300 45 ASP Yes/Yes
04L/22R 3600 45 ASP Yes/Yes

SKYbrary Partners:

Safety knowledge contributed by: